Jackson, KY

6:02 AM EST on December 06, 2019 (GMT -0500)
Carroll

Weather History for KJKL - October, 2019

Change the Weather History Date:

Tuesday, October 22, 2019

  Actual Average Record
Temperature  
Mean Temperature 58 °F 56 °F  
Max Temperature 66 °F 66 °F 81 °F (1991)
Min Temperature 50 °F 46 °F 26 °F (1987)
Degree Days  
Heating Degree Days 6 9  
Month to date heating degree days 111 151  
Since 1 July heating degree days 111 203  
Cooling Degree Days 0 1  
Month to date cooling degree days 78 28  
Year to date cooling degree days 1579 1149  
Growing Degree Days 8 (Base 50)    
Moisture  
Dew Point 52 °F    
Average Humidity 85    
Maximum Humidity 100    
Minimum Humidity 43    
Precipitation  
Precipitation 0.69 in 0.10 in 1.87 in (1990)
Month to date precipitation 3.62 2.19  
Year to date precipitation 43.08 39.20  
Snow  
Snow 0.00 in 0.00 in 0.00 in (2002)
Month to date snowfall 0.0 0.0  
Since 1 July snowfall 0.0 0.0  
Since 1 September snowfall 0.0 0.0  
Snow Depth 0.00 in    
Sea Level Pressure  
Sea Level Pressure 29.86 in    
Wind  
Wind Speed 4 mph ()    
Max Wind Speed 13 mph    
Max Gust Speed 28 mph    
Visibility 7.2 miles    
Events Rain    
T = Trace of Precipitation, MM = Missing Value Source: Averaged Metar Reports

Daily Weather History Graph

Daily Weather History Graph

Search for Another Location

Airport or City:

Astronomy

Oct. 22, 2019 Rise Set
Actual Time 7:47 AM EDT 6:46 PM EDT
Civil Twilight 7:21 AM EDT 7:13 PM EDT
Nautical Twilight 6:50 AM EDT 7:44 PM EDT
Astronomical Twilight 6:20 AM EDT 8:14 PM EDT
Moon 1:06 AM EDT (10/22) 3:46 PM EDT (10/22)
Length of Visible Light 11h 52m
Length of Day
10h 58m
Last Quarter, 37% of the Moon is Illuminated
Oct 22
Last Quarter
Oct 27
New
Nov 4
First Quarter
Nov 12
Full
Nov 19
Last Quarter

Hourly Weather History & Observations

Time (EDT) Temp. Dew Point Humidity Pressure Visibility Wind Dir Wind Speed Gust Speed Precip Events Conditions
12:53 AM 62.1 °F 62.1 °F 100% 29.81 in 10.0 mi Variable 3.5 mph - 0.01 in   Overcast
1:31 AM 62.1 °F 62.1 °F 100% 29.84 in 6.0 mi Calm Calm - 0.00 in Rain Light Rain
1:53 AM 62.1 °F 62.1 °F 100% 29.80 in 4.0 mi South 5.8 mph - 0.01 in Rain Light Rain
1:57 AM 62.1 °F 62.1 °F 100% 29.83 in 2.5 mi Variable 4.6 mph - 0.00 in Rain Heavy Rain
2:10 AM 62.1 °F 62.1 °F 100% 29.83 in 3.0 mi SSW 4.6 mph - 0.03 in Rain Light Rain
2:22 AM 62.1 °F 62.1 °F 100% 29.83 in 2.5 mi North - - 0.05 in Rain Light Rain
2:31 AM 62.1 °F 62.1 °F 100% 29.84 in 1.2 mi Variable 5.8 mph - 0.06 in Rain Heavy Rain
2:40 AM 60.1 °F 60.1 °F 100% 29.84 in 0.8 mi Variable 5.8 mph 20.7 mph 0.20 in Rain Heavy Rain
2:50 AM 57.2 °F 57.2 °F 100% 29.85 in 2.5 mi West 8.1 mph 23.0 mph 0.26 in Rain Rain
2:53 AM 57.9 °F 57.9 °F 100% 29.82 in 3.0 mi West 6.9 mph 23.0 mph 0.27 in Rain Rain
3:12 AM 57.9 °F 57.9 °F 100% 29.84 in 1.8 mi North - - 0.05 in Rain Heavy Rain
3:23 AM 57.9 °F 57.9 °F 100% 29.85 in 2.5 mi SW 3.5 mph - 0.11 in Rain Rain
3:26 AM 57.9 °F 57.9 °F 100% 29.85 in 3.0 mi Calm Calm - 0.12 in Rain Light Rain
3:43 AM 57.9 °F 57.9 °F 100% 29.84 in 2.5 mi Variable 4.6 mph - 0.14 in Rain Heavy Rain
3:53 AM 57.0 °F 57.0 °F 100% 29.81 in 6.0 mi Variable 6.9 mph - 0.17 in Rain Light Rain
4:05 AM 57.0 °F 57.0 °F 100% 29.83 in 6.0 mi West 4.6 mph - 0.01 in Rain Light Rain
4:53 AM 55.9 °F 55.9 °F 100% 29.82 in 10.0 mi Variable 4.6 mph - 0.07 in Rain Light Rain
5:53 AM 55.0 °F 55.0 °F 100% 29.84 in 5.0 mi Variable 5.8 mph - 0.04 in Rain Rain
6:12 AM 55.0 °F 55.0 °F 100% 29.89 in 3.0 mi North - - 0.06 in Rain Rain
6:53 AM 54.0 °F 54.0 °F 100% 29.87 in 7.0 mi Variable 3.5 mph - 0.11 in Rain Light Rain
7:53 AM 54.0 °F 54.0 °F 100% 29.85 in 10.0 mi Variable 3.5 mph - 0.01 in   Overcast
8:33 AM 54.0 °F 54.0 °F 100% 29.87 in 8.0 mi Variable 3.5 mph - N/A   Mostly Cloudy
8:53 AM 54.0 °F 54.0 °F 100% 29.85 in 10.0 mi Calm Calm - N/A   Overcast
9:10 AM 54.0 °F 54.0 °F 100% 29.88 in 10.0 mi Calm Calm - N/A   Overcast
9:53 AM 55.9 °F 55.9 °F 100% 29.88 in 10.0 mi North - - N/A   Overcast
10:01 AM 55.9 °F 55.9 °F 100% 29.89 in 10.0 mi Variable 3.5 mph - N/A   Overcast
10:53 AM 57.9 °F 54.0 °F 87% 29.87 in 10.0 mi Variable 4.6 mph - N/A   Mostly Cloudy
11:02 AM 57.9 °F 54.0 °F 87% 29.88 in 10.0 mi Variable 3.5 mph - N/A   Mostly Cloudy
11:17 AM 59.0 °F 51.1 °F 75% 29.88 in 10.0 mi Variable 3.5 mph - N/A   Scattered Clouds
11:53 AM 61.0 °F 50.0 °F 67% 29.86 in 10.0 mi North - - N/A   Clear
12:53 PM 62.1 °F 46.9 °F 58% 29.86 in 10.0 mi SW 4.6 mph - N/A   Scattered Clouds
1:53 PM 64.0 °F 44.1 °F 48% 29.83 in 10.0 mi Variable 5.8 mph 18.4 mph N/A   Partly Cloudy
2:53 PM 62.1 °F 41.0 °F 46% 29.83 in 10.0 mi WSW 8.1 mph 27.6 mph N/A   Scattered Clouds
3:53 PM 64.9 °F 43.0 °F 45% 29.85 in 10.0 mi West 8.1 mph - N/A   Partly Cloudy
4:53 PM 64.0 °F 41.0 °F 43% 29.87 in 10.0 mi North - - N/A   Partly Cloudy
5:53 PM 61.0 °F 39.9 °F 46% 29.88 in 10.0 mi Variable 3.5 mph - N/A   Clear
6:53 PM 57.0 °F 39.9 °F 53% 29.91 in 10.0 mi WSW 3.5 mph - N/A   Clear
7:53 PM 55.0 °F 39.9 °F 57% 29.93 in 10.0 mi WSW 3.5 mph - N/A   Clear
8:53 PM 54.0 °F 39.0 °F 57% 29.95 in 10.0 mi Variable 3.5 mph - N/A   Clear
9:53 PM 53.1 °F 39.0 °F 59% 29.97 in 10.0 mi WSW 3.5 mph - N/A   Clear
10:53 PM 51.1 °F 39.0 °F 63% 29.98 in 10.0 mi SW 3.5 mph - N/A   Clear
11:53 PM 51.1 °F 39.0 °F 63% 29.99 in 10.0 mi WSW 4.6 mph - N/A   Partly Cloudy